• In Österreich
  • Länderverzeichnis
  • Für 7 Tage
  • Wassertemperatur
  • Satellitenkarten
  • Wetterkarte
  • News
  • Widgets
  • user-avatar
    Anmelden

    Stündliche Wetter Kipungo

    Heute, 25 September, Dienstag

    Zeit Temperatur Niederschläge Wind Luftdruck Luftfeuchtigkeit
    00:00 +24°C° 0 mm 2 m/S 653 mmHg 56%
    01:00 +23°C° 0 mm 2 m/S 653 mmHg 59%
    02:00 +21°C° 0 mm 2 m/S 653 mmHg 61%
    03:00 +20°C° 0 mm 2 m/S 652 mmHg 62%
    04:00 +21°C° 0 mm 1 m/S 652 mmHg 64%
    05:00 +21°C° 0 mm 1 m/S 653 mmHg 62%
    06:00 +22°C° 0 mm 1 m/S 653 mmHg 59%
    07:00 +23°C° 0 mm 1 m/S 654 mmHg 55%
    08:00 +27°C° 0 mm 1 m/S 655 mmHg 43%
    09:00 +30°C° 0 mm 1 m/S 656 mmHg 32%
    10:00 +34°C° 0 mm 1 m/S 657 mmHg 20%
    11:00 +36°C° 0 mm 1 m/S 656 mmHg 17%
    12:00 +39°C° 0 mm 1 m/S 656 mmHg 14%
    13:00 +41°C° 0 mm 1 m/S 656 mmHg 11%
    14:00 +40°C° 0 mm 1 m/S 655 mmHg 12%
    15:00 +37°C° 0 mm 1 m/S 654 mmHg 12%
    16:00 +36°C° 0 mm 1 m/S 653 mmHg 13%
    17:00 +35°C° 0 mm 2 m/S 653 mmHg 17%
    18:00 +32°C° 0 mm 2 m/S 653 mmHg 20%
    19:00 +30°C° 0 mm 3 m/S 653 mmHg 24%
    20:00 +28°C° 0 mm 3 m/S 653 mmHg 31%
    21:00 +27°C° 0 mm 3 m/S 654 mmHg 39%
    22:00 +25°C° 0 mm 2 m/S 654 mmHg 46%
    23:00 +24°C° 0 mm 2 m/S 654 mmHg 51%

    Morgen, 26 September, Mittwoch

    Zeit Temperatur Niederschläge Wind Luftdruck Luftfeuchtigkeit
    00:00 +23°C° 0 mm 2 m/S 653 mmHg 56%
    01:00 +22°C° 0 mm 1 m/S 653 mmHg 60%
    02:00 +21°C° 0 mm 1 m/S 653 mmHg 64%
    03:00 +21°C° 0 mm 1 m/S 653 mmHg 67%
    04:00 +20°C° 0 mm 1 m/S 653 mmHg 70%
    05:00 +21°C° 0 mm 1 m/S 653 mmHg 65%
    06:00 +20°C° 0 mm 0 m/S 654 mmHg 60%
    07:00 +21°C° 0 mm 0 m/S 654 mmHg 55%
    08:00 +27°C° 0 mm 1 m/S 655 mmHg 42%
    09:00 +30°C° 0 mm 2 m/S 656 mmHg 29%
    10:00 +34°C° 0 mm 2 m/S 657 mmHg 16%
    11:00 +36°C° 0 mm 2 m/S 656 mmHg 14%
    12:00 +38°C° 0 mm 2 m/S 656 mmHg 12%
    13:00 +39°C° 0 mm 2 m/S 655 mmHg 10%
    14:00 +39°C° 0 mm 2 m/S 654 mmHg 10%
    15:00 +38°C° 0 mm 2 m/S 654 mmHg 10%
    16:00 +38°C° 0 mm 2 m/S 653 mmHg 10%
    17:00 +36°C° 0 mm 2 m/S 653 mmHg 13%
    18:00 +34°C° 0 mm 2 m/S 653 mmHg 16%
    19:00 +31°C° 0 mm 2 m/S 653 mmHg 18%
    20:00 +29°C° 0 mm 3 m/S 654 mmHg 26%
    21:00 +27°C° 0 mm 3 m/S 654 mmHg 34%
    22:00 +25°C° 0 mm 3 m/S 654 mmHg 42%
    23:00 +24°C° 0 mm 2 m/S 653 mmHg 45%

    übermorgen, 27 September, Donnerstag

    Zeit Temperatur Niederschläge Wind Luftdruck Luftfeuchtigkeit
    00:00 +23°C° 0 mm 2 m/S 653 mmHg 49%
    01:00 +21°C° 0 mm 2 m/S 653 mmHg 52%
    02:00 +21°C° 0 mm 1 m/S 652 mmHg 52%
    03:00 +21°C° 0 mm 1 m/S 652 mmHg 52%
    04:00 +20°C° 0 mm 1 m/S 652 mmHg 53%
    05:00 +21°C° 0 mm 1 m/S 653 mmHg 48%
    06:00 +22°C° 0 mm 1 m/S 653 mmHg 43%
    07:00 +23°C° 0 mm 1 m/S 654 mmHg 38%
    08:00 +27°C° 0 mm 1 m/S 655 mmHg 30%
    09:00 +30°C° 0 mm 2 m/S 655 mmHg 22%
    10:00 +34°C° 0 mm 3 m/S 656 mmHg 13%
    11:00 +35°C° 0 mm 3 m/S 655 mmHg 13%
    12:00 +37°C° 0 mm 2 m/S 655 mmHg 13%
    13:00 +38°C° 0 mm 2 m/S 654 mmHg 13%
    14:00 +37°C° 0 mm 2 m/S 653 mmHg 14%
    15:00 +36°C° 0 mm 2 m/S 653 mmHg 15%
    16:00 +36°C° 0 mm 2 m/S 652 mmHg 16%
    17:00 +34°C° 0 mm 2 m/S 652 mmHg 18%
    18:00 +31°C° 0 mm 2 m/S 653 mmHg 19%
    19:00 +30°C° 0 mm 1 m/S 653 mmHg 21%
    20:00 +29°C° 0 mm 2 m/S 653 mmHg 24%
    21:00 +27°C° 0 mm 2 m/S 654 mmHg 27%
    22:00 +26°C° 0 mm 2 m/S 654 mmHg 30%
    23:00 +25°C° 0 mm 2 m/S 653 mmHg 34%

    28 September, Freitag

    Zeit Temperatur Niederschläge Wind Luftdruck Luftfeuchtigkeit
    00:00 +24°C° 0 mm 1 m/S 653 mmHg 38%
    01:00 +23°C° 0 mm 1 m/S 652 mmHg 42%
    02:00 +23°C° 0 mm 1 m/S 652 mmHg 42%
    03:00 +23°C° 0 mm 2 m/S 652 mmHg 42%
    04:00 +21°C° 0 mm 2 m/S 652 mmHg 42%
    05:00 +23°C° 0 mm 2 m/S 653 mmHg 36%
    06:00 +24°C° 0 mm 3 m/S 653 mmHg 30%
    07:00 +25°C° 0 mm 3 m/S 654 mmHg 24%
    08:00 +29°C° 0 mm 4 m/S 654 mmHg 19%
    09:00 +33°C° 0 mm 4 m/S 655 mmHg 14%
    10:00 +36°C° 0 mm 5 m/S 656 mmHg 9%
    11:00 +38°C° 0 mm 4 m/S 655 mmHg 9%
    12:00 +40°C° 0 mm 4 m/S 654 mmHg 8%
    13:00 +40°C° 0 mm 3 m/S 653 mmHg 8%
    14:00 +40°C° 0 mm 3 m/S 653 mmHg 8%
    15:00 +40°C° 0 mm 3 m/S 653 mmHg 8%
    16:00 +40°C° 0 mm 2 m/S 652 mmHg 8%
    17:00 +37°C° 0 mm 2 m/S 652 mmHg 11%
    18:00 +35°C° 0 mm 2 m/S 652 mmHg 14%
    19:00 +31°C° 0 mm 2 m/S 652 mmHg 18%
    20:00 +29°C° 0 mm 2 m/S 653 mmHg 26%
    21:00 +27°C° 0 mm 2 m/S 653 mmHg 35%
    22:00 +26°C° 0 mm 2 m/S 653 mmHg 44%
    23:00 +25°C° 0 mm 2 m/S 652 mmHg 49%

    29 September, Samstag

    Zeit Temperatur Niederschläge Wind Luftdruck Luftfeuchtigkeit
    00:00 +24°C° 0 mm 2 m/S 652 mmHg 54%
    01:00 +23°C° 0 mm 2 m/S 651 mmHg 59%
    02:00 +21°C° 0 mm 2 m/S 651 mmHg 58%
    03:00 +21°C° 0 mm 2 m/S 651 mmHg 57%
    04:00 +21°C° 0 mm 2 m/S 651 mmHg 57%
    05:00 +22°C° 0 mm 1 m/S 652 mmHg 53%
    06:00 +23°C° 0 mm 1 m/S 653 mmHg 48%
    07:00 +24°C° 0 mm 1 m/S 653 mmHg 44%
    08:00 +28°C° 0 mm 1 m/S 654 mmHg 35%
    09:00 +32°C° 0 mm 1 m/S 655 mmHg 26%
    10:00 +36°C° 0 mm 1 m/S 656 mmHg 17%
    11:00 +38°C° 0 mm 2 m/S 656 mmHg 15%
    12:00 +40°C° 0 mm 2 m/S 655 mmHg 14%
    13:00 +41°C° 0 mm 2 m/S 655 mmHg 13%
    14:00 +40°C° 0 mm 2 m/S 654 mmHg 14%
    15:00 +38°C° 0 mm 3 m/S 654 mmHg 15%
    16:00 +37°C° 0 mm 3 m/S 653 mmHg 17%
    17:00 +35°C° 0.2 mm 3 m/S 653 mmHg 22%
    18:00 +33°C° 0.2 mm 3 m/S 653 mmHg 27%
    19:00 +29°C° 0.2 mm 3 m/S 654 mmHg 32%
    20:00 +28°C° 0 mm 3 m/S 654 mmHg 38%
    21:00 +27°C° 0 mm 3 m/S 654 mmHg 45%
    22:00 +25°C° 0 mm 3 m/S 654 mmHg 51%
    23:00 +25°C° 0 mm 2 m/S 654 mmHg 55%

    30 September, Sonntag

    Zeit Temperatur Niederschläge Wind Luftdruck Luftfeuchtigkeit
    00:00 +24°C° 0 mm 2 m/S 654 mmHg 59%
    01:00 +23°C° 0 mm 1 m/S 653 mmHg 63%
    02:00 +23°C° 0 mm 2 m/S 653 mmHg 63%
    03:00 +23°C° 0 mm 2 m/S 653 mmHg 64%
    04:00 +21°C° 0 mm 2 m/S 653 mmHg 64%
    05:00 +23°C° 0 mm 1 m/S 654 mmHg 62%
    06:00 +23°C° 0 mm 1 m/S 654 mmHg 59%
    07:00 +24°C° 0 mm 1 m/S 655 mmHg 57%
    08:00 +27°C° 0 mm 1 m/S 655 mmHg 46%
    09:00 +31°C° 0 mm 1 m/S 656 mmHg 35%
    10:00 +35°C° 0 mm 2 m/S 657 mmHg 24%
    11:00 +37°C° 0 mm 2 m/S 656 mmHg 21%
    12:00 +38°C° 0 mm 3 m/S 655 mmHg 19%
    13:00 +39°C° 0 mm 3 m/S 655 mmHg 16%
    14:00 +38°C° 0 mm 3 m/S 654 mmHg 17%
    15:00 +38°C° 0 mm 3 m/S 654 mmHg 18%
    16:00 +37°C° 0 mm 3 m/S 653 mmHg 19%
    17:00 +34°C° 0.1 mm 2 m/S 654 mmHg 24%
    18:00 +31°C° 0.1 mm 2 m/S 654 mmHg 29%
    19:00 +28°C° 0.1 mm 1 m/S 654 mmHg 35%
    20:00 +27°C° 0.4 mm 1 m/S 654 mmHg 40%
    21:00 +26°C° 0.4 mm 1 m/S 654 mmHg 45%
    22:00 +25°C° 0.4 mm 1 m/S 654 mmHg 50%
    23:00 +25°C° 0 mm 1 m/S 654 mmHg 53%
    Mehr zeigen